World > North America > United States > Mississippi

Hourly Ecru, MS Regional Weather

Feedback E-mail the Weather

Quick WX

Ecru, MS Weather Maps

°F °C°F °C
Ecru Weather Map
UTC Time: 7/3/2022, 14:54
Your Time:

Ecru, MS Regional Weather

Expires:202207031500;;611491
ASUS44 KJAN 031410
RWRMS 

MISSISSIPPI HOURLY WEATHER ROUNDUP
NATIONAL WEATHER SERVICE JACKSON MS
900 AM CDT SUN JUL 03 2022

NOTE: "FAIR: INDICATES FEW OR NO CLOUDS BELOW 12,000 FEET WITH NO
SIGNIFICANT WEATHER AND/OR OBSTRUCTIONS TO VISIBILITY.


MSZ003>006-009-014>017-022>024-029>033-037>039-031500-
NORTHEAST MISSISSIPPI
  
CITY           SKY/WX    TMP DP  RH WIND       PRES   REMARKS
ABERDEEN       PTSUNNY   81  77  89 SE3       30.11R                  
COLUMBUS AFB   MOSUNNY   80  73  76 CALM      30.07R                  
CORINTH        PTSUNNY   81  70  69 CALM      30.10R                  
GOLDN TRIANGLE PTSUNNY   79  74  84 VRB5      30.11R                  
TUPELO         PTSUNNY   85  72  65 VRB3      30.09R HX  91           
$$


SKY/WX - Weather  TMP - Temperature  DP - Dew Point  RH - Humidity
WIND - Wind Direction/Speed PRES - Barometric Pressure VSB - Visibility
WCI - Wind Chill Index E13G22 Wind - East Wind 13 mph/Gusts of 22 mph

Trending Headlines

Ecru Radar Loop



Ecru Quick Facts


National Two Day Weather Forecast


E-mail the Ecru Weather Forecast

Voice your opinion or tell us about page issues...